[[{"header":{"parameterUnit":"m.s-1","parameterCategory":1,"la1":30.2991,"la2":30.254,"lo1":-89.0895,"lo2":-89.0444,"dy":0.0017,"dx":0.0017,"nx":28,"ny":28,"refTime":"2025-02-05T03:00:00:Z","depth":0,"parameterNumber":2,"parameterNumberName":"U-component_of_WINDS"},"data":[0,0,0,0,0,0,0,0,0,0,0,0,0,0,0,0,0,0,0,0,0,0,0,0,0,0,0,0,0,0,0,0,0,0,0,0,0,0,0,0,0,0,0,0,0,0,0,0,0,0,0,0,0,0,0,0,0,0,-1.3521,-1.3521,0,-1.3535,-1.3535,-1.3535,-1.3501,-1.35,-1.3499,-1.3498,-1.3511,-1.3513,-1.3514,0,0,0,0,0,0,0,0,0,0,0,0,0,-1.3467,-1.3468,-1.3521,-1.3521,-1.3521,-1.3535,-1.3535,-1.3535,-1.3501,-1.35,-1.3499,-1.3497,-1.3511,-1.3512,-1.3514,0,0,0,0,0,0,0,0,0,0,0,0,0,-1.3486,-1.3468,-1.3521,-1.3506,-1.3505,-1.3535,-1.3535,-1.3535,-1.3501,-1.35,-1.3498,-1.3497,-1.351,-1.3512,-1.3514,-1.3559,0,0,-1.352,-1.3521,0,0,0,0,0,0,0,0,-1.3485,-1.3488,-1.3508,-1.3507,-1.3506,-1.3514,-1.352,-1.3543,-1.3502,-1.3503,-1.3498,-1.3496,-1.3514,-1.3515,-1.3521,-1.3559,-1.356,-1.3521,-1.3522,-1.3523,-1.3523,0,0,0,0,0,0,0,-1.3484,-1.3487,-1.3526,-1.3508,-1.3507,-1.3499,-1.35,-1.3524,-1.3517,-1.3503,-1.35,-1.3502,-1.3513,-1.3519,-1.3521,-1.356,-1.3521,-1.3522,-1.3524,-1.3524,-1.3636,-1.3638,0,0,0,0,0,0,-1.3484,-1.3487,-1.3526,-1.3527,-1.3491,-1.3501,-1.3502,-1.3513,-1.3517,-1.3516,-1.3504,-1.3501,-1.3517,-1.3519,-1.3522,-1.3574,-1.3523,-1.3525,-1.3526,-1.3634,-1.3636,-1.3638,0,0,0,0,0,0,-1.3483,-1.3488,-1.3525,-1.3506,-1.351,-1.3504,-1.3516,-1.3514,-1.3521,-1.3517,-1.3516,-1.3512,-1.3516,-1.3519,-1.355,-1.3574,-1.3525,-1.3527,-1.3632,-1.3635,-1.3637,-1.3679,0,0,0,0,0,0,-1.3482,-1.3488,-1.3504,-1.3507,-1.3511,-1.3553,-1.3518,-1.3516,-1.3525,-1.3521,-1.3525,-1.3524,-1.3515,-1.3547,-1.3552,-1.3576,-1.3529,-1.363,-1.3633,-1.3637,-1.3675,-1.3682,-1.3689,0,0,0,0,0,-1.348,-1.3515,-1.3505,-1.351,-1.3532,-1.3555,-1.3557,-1.3546,-1.3527,-1.3543,-1.3541,-1.3524,-1.3571,-1.3551,-1.3556,-1.3581,-1.3628,-1.3632,-1.3636,-1.3672,-1.3681,-1.3689,0,0,0,0,0,0,-1.3515,-1.3515,-1.3504,-1.3541,-1.3548,-1.3549,-1.3569,-1.3556,-1.3568,-1.3564,-1.355,-1.3551,-1.3585,-1.3586,-1.3563,-1.3624,-1.3596,-1.3602,-1.3622,-1.363,-1.3637,-1.3635,-1.3531,0,0,0,0,0,-1.3528,-1.3546,-1.3545,-1.3578,-1.3582,-1.3575,-1.3585,-1.3576,-1.3583,-1.3585,-1.3585,-1.3592,-1.3609,-1.362,-1.3635,-1.3676,-1.3676,-1.3696,-1.3702,-1.3708,-1.3712,-1.3734,-1.3743,-1.3651,-1.3651,-1.3651,0,0,-1.3553,-1.3555,-1.3567,-1.3585,-1.3589,-1.3609,-1.3578,-1.36,-1.3614,-1.3588,-1.3618,-1.3618,-1.3625,-1.3662,-1.3678,-1.3664,-1.3738,-1.3713,-1.3718,-1.3719,-1.3739,-1.3748,-1.3756,-1.3654,-1.3654,-1.3653,0,0,-1.3608,-1.3612,-1.364,-1.3645,-1.3653,-1.3648,-1.3655,-1.3658,-1.3658,-1.3687,-1.3669,-1.3686,-1.3715,-1.372,-1.3727,-1.3788,-1.3772,-1.3793,-1.3828,-1.385,-1.3857,-1.3863,-1.3884,-1.3892,-1.3798,-1.3798,-1.3798,0,-1.3638,-1.3667,-1.3656,-1.3679,-1.3688,-1.3666,-1.3695,-1.3701,-1.3712,-1.3719,-1.3703,-1.374,-1.3743,-1.378,-1.3795,-1.3802,-1.3809,-1.3792,-1.3857,-1.3863,-1.3869,-1.3889,-1.3897,-1.38,-1.38,-1.38,-1.3799,0,-1.3703,-1.3724,-1.3746,-1.3758,-1.3769,-1.3795,-1.3788,-1.3801,-1.3792,-1.379,-1.382,-1.3824,-1.3839,-1.3848,-1.3839,-1.3885,-1.3876,-1.3859,-1.383,-1.388,-1.3899,-1.3906,-1.3804,-1.3803,-1.3802,-1.3801,0,0,-1.3779,-1.3787,-1.3795,-1.3801,-1.3808,-1.3824,-1.385,-1.3865,-1.3876,-1.3886,-1.3907,-1.3933,-1.3918,-1.3925,-1.3917,-1.3937,-1.3984,-1.3917,-1.3917,-1.3929,-1.4035,-1.4047,-1.4056,-1.3975,-1.3976,-1.3977,-1.4034,0,-1.3834,-1.3877,-1.3869,-1.3911,-1.393,-1.3911,-1.3934,-1.3941,-1.394,-1.3956,-1.3955,-1.3974,-1.3952,-1.3957,-1.3975,-1.3974,-1.4005,-1.397,-1.3993,-1.3994,-1.3991,-1.4066,-1.4078,-1.4131,-1.4041,-1.4043,-1.4043,0,-1.3902,-1.3915,-1.396,-1.3965,-1.3973,-1.3993,-1.4007,-1.4023,-1.4032,-1.403,-1.404,-1.4028,-1.4054,-1.4027,-1.4062,-1.4039,-1.4048,-1.4049,-1.4051,-1.4052,-1.4021,-1.4067,-1.4148,-1.4156,-1.4055,-1.4054,-1.4053,0,-1.3952,-1.3981,-1.4011,-1.4017,-1.4025,-1.4039,-1.4043,-1.405,-1.406,-1.4073,-1.408,-1.4096,-1.4104,-1.4117,-1.411,-1.4091,-1.4147,-1.4119,-1.4146,-1.4146,-1.4157,-1.4156,-1.4239,-1.4165,-1.4165,-1.4165,-1.4165,0,-1.4013,-1.4041,-1.4034,-1.4053,-1.4084,-1.4075,-1.4106,-1.4107,-1.4114,-1.4133,-1.4118,-1.4136,-1.4127,-1.4145,-1.414,-1.417,-1.4174,-1.4173,-1.4171,-1.4174,-1.4174,-1.4178,-1.4174,-1.4167,-1.4166,-1.4166,-1.4166,0,-1.4073,-1.407,-1.4102,-1.4107,-1.4109,-1.4132,-1.4136,-1.4154,-1.4153,-1.4177,-1.4182,-1.418,-1.42,-1.4195,-1.4217,-1.4214,-1.4252,-1.4246,-1.4249,-1.4247,-1.4273,-1.4271,-1.4362,-1.4373,-1.4293,-1.4293,-1.4294,0,-1.4111,-1.4132,-1.414,-1.4152,-1.4157,-1.4176,-1.4187,-1.418,-1.4192,-1.4204,-1.4221,-1.424,-1.4254,-1.4287,-1.4288,-1.4305,-1.4298,-1.4329,-1.43,-1.4303,-1.4298,-1.4296,-1.4298,-1.4334,-1.4335,-1.4336,-1.4336,0,-1.4179,-1.4177,-1.4193,-1.421,-1.4223,-1.4236,-1.4247,-1.4257,-1.4251,-1.4265,-1.4286,-1.4297,-1.432,-1.4339,-1.4355,-1.436,-1.4347,-1.4346,-1.4353,-1.4355,-1.4355,-1.4355,-1.4263,-1.4343,-1.4343,-1.4342,-1.4342,-1.4341,-1.4229,-1.4247,-1.4256,-1.4275,-1.4283,-1.4294,-1.4311,-1.4312,-1.433,-1.4348,-1.4343,-1.4366,-1.4376,-1.4396,-1.4402,-1.4421,-1.4409,-1.4419,-1.4421,-1.4424,-1.4427,-1.4354,-1.4424,-1.4423,-1.4423,-1.4423,-1.4423,0,-1.4296,-1.4301,-1.4319,-1.4335,-1.435,-1.4338,-1.435,-1.4364,-1.4385,-1.4395,-1.441,-1.4434,-1.4453,-1.4456,-1.4474,-1.4488,-1.4483,-1.4493,-1.4491,-1.4492,-1.4436,-1.4428,-1.4497,-1.4497,-1.4497,-1.4497,-1.4497,-1.4497,-1.4332,-1.4362,-1.4361,-1.4395,-1.44,-1.4424,-1.4431,-1.4442,-1.445,-1.4477,-1.4493,-1.4495,-1.4503,-1.4521,-1.4538,-1.4539,-1.4546,-1.4558,-1.4556,-1.4503,-1.4496,-1.4489,-1.4481,-1.456,-1.456,-1.461,-1.4611,-1.4611]},{"header":{"parameterUnit":"m.s-1","parameterCategory":1,"la1":30.2991,"la2":30.254,"lo1":-89.0895,"lo2":-89.0444,"dy":0.0017,"dx":0.0017,"nx":28,"ny":28,"refTime":"2025-02-05T03:00:00:Z","depth":0,"parameterNumber":3,"parameterNumberName":"V-component_of_WINDS"},"data":[0,0,0,0,0,0,0,0,0,0,0,0,0,0,0,0,0,0,0,0,0,0,0,0,0,0,0,0,0,0,0,0,0,0,0,0,0,0,0,0,0,0,0,0,0,0,0,0,0,0,0,0,0,0,0,0,0,0,1.6732,1.6733,0,1.6755,1.6755,1.6755,1.6777,1.6777,1.6777,1.6778,1.6797,1.6797,1.6798,0,0,0,0,0,0,0,0,0,0,0,0,0,1.6706,1.6706,1.6732,1.6733,1.6733,1.6755,1.6755,1.6756,1.6777,1.6777,1.6778,1.6778,1.6797,1.6797,1.6798,0,0,0,0,0,0,0,0,0,0,0,0,0,1.6721,1.6706,1.6732,1.6746,1.6748,1.6755,1.6755,1.6756,1.6777,1.6777,1.6778,1.6778,1.6797,1.6797,1.6798,1.6792,0,0,1.6799,1.6799,0,0,0,0,0,0,0,0,1.6721,1.6722,1.6744,1.6745,1.6747,1.6764,1.6753,1.6767,1.6777,1.6766,1.6778,1.6778,1.6785,1.6787,1.679,1.6792,1.6793,1.6799,1.6799,1.6799,1.6799,0,0,0,0,0,0,0,1.6719,1.6722,1.6741,1.6744,1.6746,1.6751,1.6754,1.6756,1.6773,1.6767,1.6768,1.6771,1.6786,1.6789,1.679,1.6794,1.6799,1.6799,1.6799,1.68,1.6794,1.6794,0,0,0,0,0,0,1.6717,1.672,1.674,1.6742,1.6735,1.6751,1.6754,1.6758,1.6773,1.6776,1.677,1.6772,1.6789,1.679,1.6791,1.6787,1.6799,1.68,1.68,1.6795,1.6794,1.6794,0,0,0,0,0,0,1.6716,1.6718,1.6739,1.6732,1.6735,1.6751,1.6755,1.6758,1.6761,1.6776,1.6779,1.6771,1.6789,1.6791,1.6792,1.6788,1.68,1.68,1.6795,1.6795,1.6794,1.6776,0,0,0,0,0,0,1.6715,1.6718,1.6716,1.6732,1.6735,1.674,1.6755,1.6758,1.6762,1.6764,1.6777,1.6779,1.6789,1.6791,1.6792,1.6788,1.68,1.6796,1.6795,1.6794,1.6777,1.6775,1.6773,0,0,0,0,0,1.6714,1.6709,1.6716,1.6718,1.6733,1.674,1.6742,1.6755,1.6762,1.676,1.677,1.6779,1.6788,1.6791,1.6793,1.6789,1.6796,1.6795,1.6794,1.6778,1.6776,1.6773,0,0,0,0,0,0,1.669,1.6711,1.6719,1.6718,1.6728,1.6744,1.6742,1.6752,1.6758,1.6759,1.6774,1.6777,1.6777,1.6783,1.6786,1.6785,1.6793,1.6793,1.6781,1.6778,1.6776,1.6775,1.6801,0,0,0,0,0,1.6685,1.669,1.6707,1.6705,1.671,1.6725,1.6728,1.6738,1.6747,1.6751,1.676,1.6768,1.6774,1.6776,1.6781,1.6779,1.6782,1.6777,1.6775,1.6773,1.6772,1.6773,1.6771,1.6791,1.6791,1.6791,0,0,1.6674,1.6686,1.6688,1.6701,1.6709,1.6713,1.6728,1.6731,1.6735,1.6751,1.6754,1.6761,1.6771,1.6771,1.6771,1.6776,1.6767,1.6772,1.677,1.6771,1.6772,1.677,1.6768,1.6791,1.6791,1.6791,0,0,1.6656,1.6666,1.6666,1.6675,1.6688,1.6699,1.6699,1.6714,1.672,1.6723,1.6737,1.674,1.6748,1.6755,1.676,1.6748,1.6757,1.6749,1.6738,1.6739,1.6737,1.6736,1.6733,1.6731,1.6748,1.6748,1.6748,0,1.6641,1.6649,1.6665,1.6668,1.6674,1.6691,1.6692,1.6699,1.6712,1.6716,1.6721,1.6733,1.6741,1.6744,1.6741,1.6744,1.6745,1.6747,1.6737,1.6735,1.6734,1.6731,1.673,1.6747,1.6747,1.6747,1.6748,0,1.663,1.6635,1.6633,1.6649,1.6654,1.6656,1.6672,1.6676,1.6685,1.6695,1.6699,1.6709,1.6718,1.6719,1.6727,1.6724,1.6726,1.6734,1.6743,1.6731,1.6729,1.6728,1.6746,1.6746,1.6746,1.6747,0,0,1.6596,1.6622,1.6621,1.6629,1.6646,1.665,1.6653,1.6663,1.6667,1.6675,1.6679,1.6686,1.6694,1.67,1.6709,1.6709,1.6701,1.6717,1.6718,1.6715,1.6699,1.6693,1.6692,1.6707,1.6707,1.6707,1.6698,0,1.6582,1.659,1.6605,1.6608,1.6614,1.6632,1.6634,1.6645,1.6655,1.6661,1.6671,1.6677,1.6686,1.669,1.6691,1.6702,1.6698,1.6703,1.671,1.671,1.6708,1.669,1.6684,1.6675,1.6697,1.6697,1.6697,0,1.6566,1.6576,1.658,1.6599,1.6602,1.6605,1.6616,1.6622,1.6634,1.6642,1.6649,1.666,1.6665,1.6673,1.668,1.6682,1.6687,1.6693,1.6693,1.6694,1.6703,1.6692,1.6673,1.6671,1.6695,1.6696,1.6696,0,1.6542,1.6557,1.6562,1.6568,1.659,1.6591,1.66,1.6614,1.6619,1.6629,1.6633,1.6643,1.6648,1.6655,1.6669,1.6674,1.6674,1.6683,1.668,1.668,1.6679,1.6679,1.6661,1.6681,1.6681,1.6681,1.6681,0,1.6525,1.6527,1.6553,1.6555,1.6559,1.6577,1.6579,1.6589,1.6601,1.6606,1.6621,1.6626,1.6644,1.665,1.6661,1.6665,1.6667,1.6673,1.6676,1.6672,1.6671,1.6675,1.6676,1.6681,1.6681,1.6681,1.6681,0,1.6499,1.6516,1.6523,1.6544,1.6549,1.6551,1.6568,1.6572,1.6584,1.659,1.6593,1.6611,1.6619,1.6634,1.6646,1.6653,1.6656,1.666,1.6652,1.6654,1.665,1.6651,1.6634,1.6633,1.6653,1.6653,1.6653,0,1.6487,1.649,1.6512,1.6517,1.6526,1.6534,1.6541,1.6559,1.6565,1.6582,1.6583,1.6594,1.6603,1.6616,1.6629,1.6639,1.6644,1.6638,1.6646,1.6642,1.6645,1.6645,1.6646,1.6636,1.6636,1.6635,1.6635,0,1.6465,1.6474,1.6484,1.6497,1.6505,1.6516,1.6528,1.6531,1.6552,1.6558,1.6568,1.6576,1.659,1.66,1.6612,1.662,1.6631,1.6633,1.6633,1.6629,1.6624,1.6628,1.6648,1.6633,1.6633,1.6633,1.6633,1.6634,1.6446,1.645,1.6467,1.6478,1.6489,1.65,1.6505,1.6519,1.6528,1.6542,1.6552,1.6561,1.6575,1.6594,1.6602,1.6609,1.6614,1.6613,1.6613,1.6613,1.6612,1.6623,1.6611,1.6611,1.6611,1.6611,1.6612,0,1.6425,1.6437,1.6447,1.6465,1.6474,1.6485,1.6499,1.6506,1.6514,1.6527,1.6537,1.6549,1.656,1.6575,1.6587,1.659,1.6596,1.6593,1.6593,1.6595,1.6607,1.6606,1.6588,1.6588,1.6588,1.6588,1.6588,1.6588,1.6415,1.6423,1.6434,1.6448,1.646,1.6471,1.6478,1.6489,1.6499,1.6513,1.6523,1.6533,1.6548,1.6561,1.6571,1.6575,1.6579,1.6575,1.6581,1.6591,1.6594,1.6596,1.6595,1.6575,1.6575,1.6568,1.6568,1.6568]}]]